Regional Weather Roundup
Issued by NWS

Home | Current Version | Previous Version | Text Only | Print | Product List | Glossary Off
Versions: 1 2 3 4 5 6 7 8 9 10 11 12 13 14 15 16 17 18 19 20 21 22 23 24 25 26 27 28 29 30 31 32 33 34 35 36 37 38 39 40 41 42 43 44 45 46 47 48 49 50

000
ASUS43 KMKX 312000
RWRWI

WISCONSIN REGIONAL WEATHER ROUNDUP
NATIONAL WEATHER SERVICE MILWAUKEE/SULLIVAN WI
300 PM CDT MON AUG 31 2015

NOTE: "FAIR" INDICATES FEW OR NO CLOUDS BELOW 12,000 FEET WITH NO
SIGNIFICANT WEATHER AND/OR OBSTRUCTIONS TO VISIBILITY.

WIZ001-002-006>008-014>016-023>028-312100-
NORTHWEST WISCONSIN

CITY           SKY/WX    TMP DP  RH WIND       PRES   REMARKS
SUPERIOR ARPT  SUNNY     83  69  63 SW15      29.83F HX  86
ASHLAND        SUNNY     82  69  64 S13G21    29.88F HX  85
HAYWARD        SUNNY     77  66  68 S18       29.94S
SIREN          MOSUNNY   81  67  63 S16       29.91F HX  83
CUMBERLAND     PTSUNNY   77  68  73 S10       29.95F
RICE LAKE      CLOUDY    77  68  73 S13       29.97F
CHETEK         PTSUNNY  N/A N/A N/A S7        29.96F
LADYSMITH      PTSUNNY   76  68  74 S12G17    30.00S
EAU CLAIRE     NOT AVBL
MENOMONIE      MOSUNNY   82  70  68 SE12      29.95F HX  85
NEW RICHMOND   MOSUNNY   81  68  64 SW14G22   29.93F HX  84
OSCEOLA        MOSUNNY   82  69  66 S12G23    29.94F HX  85
$$

WIZ003>005-009-010-017-018-312100-
NORTH CENTRAL WISCONSIN

CITY           SKY/WX    TMP DP  RH WIND       PRES   REMARKS
MANITOWISH WTR SUNNY     79  65  63 SW12      29.97F HX  80
ARBOR VITAE    SUNNY     80  66  62 S12       29.98F HX  82
WOODRUFF       SUNNY     80  66  62 S12       29.98F HX  82
RHINELANDER    SUNNY     78  65  63 S10       30.00F HX  80
EAGLE RIVER    SUNNY     79  61  54 SW8       29.98F HX  80
LAND O LAKES   SUNNY     82  59  45 SW7       29.98F HX  82
PHILLIPS       SUNNY     76  67  74 SW9       29.98F
TOMAHAWK       SUNNY     78  65  65 S3        30.00F HX  80
MEDFORD        CLOUDY    72  67  85 S10       30.02S
MERRILL        MOSUNNY   76  68  76 S8        30.01F
$$

WIZ029-030-035-036-043>047-312100-
CENTRAL WISCONSIN

CITY           SKY/WX    TMP DP  RH WIND       PRES   REMARKS
WAUSAU         MOSUNNY   77  66  68 S8        30.00F
MOSINEE        PTSUNNY   75  68  78 SW12      30.02F
MARSHFIELD     CLOUDY    76  66  71 S7        30.01F
STEVENS POINT  PTSUNNY   75  66  72 SW10      30.02F
WAUPACA        MOSUNNY   82  68  63 S9        30.02S HX  84
WAUTOMA        NOT AVBL
WISC RAPIDS    MOSUNNY   79  66  64 SW12      30.03S HX  81
CAMP DOUGLAS   NOT AVBL
$$

WIZ011>013-019>022-031-037>040-048>050-312100-
NORTHEAST WISCONSIN

CITY           SKY/WX    TMP DP  RH WIND       PRES   REMARKS
ANTIGO         CLOUDY    73  66  76 SW8       30.03S
SHAWANO        CLOUDY    76  67  74 SW10      30.01F
OCONTO         SUNNY     78  69  72 SW10      29.99F HX  80
STURGEON BAY   SUNNY     77  64  65 SW9       30.02F
GREEN BAY      MOSUNNY   78  69  73 SW7       30.00F HX  80
MANITOWOC      NOT AVBL
APPLETON       PTSUNNY   75  64  69 S9        30.01F
CLINTONVILLE   PTSUNNY   77  66  69 SW8       30.01F
OSHKOSH        MOSUNNY   78  67  68 S9        30.02F HX  80
$$

WIZ032>034-041-042-053>061-312100-
SOUTHWEST WISCONSIN

CITY           SKY/WX    TMP DP  RH WIND       PRES   REMARKS
LA CROSSE      SUNNY     84  71  65 S12       29.96F HX  89
SPARTA         MOSUNNY   83  67  58 S12       30.00F HX  85
VIROQUA          N/A     80  69  67 S9        30.03S HX  83
BOSCOBEL       MOSUNNY   86  70  58 VRB6      30.00F HX  90
PRAIRIE DU CHI MOSUNNY   84  68  58 SE6       29.99F HX  87
PLATTEVILLE    MOSUNNY   82  71  70 S10       30.03F HX  86
$$

WIZ056-057-062-063-064-067-068-312100-
SOUTH CENTRAL WISCONSIN

CITY           SKY/WX    TMP DP  RH WIND       PRES   REMARKS
REEDSBURG      MOSUNNY   82  70  66 S9        30.02F HX  86
BARABOO/DELLS  PTSUNNY   82  66  57 SW7       30.03S HX  84
LONE ROCK      NOT AVBL
MINERAL POINT  MOSUNNY   82  68  61 S7        30.04F HX  85
MADISON        PTSUNNY   82  67  60 S9        30.02F HX  84
MIDDLETON      MOSUNNY   84  66  55 S8        30.04F HX  86
WATERTOWN      MOSUNNY   80  69  68 S5        30.04F HX  83
MONROE         MOSUNNY   81  66  61 S9        30.05S HX  83
JANESVILLE     MOSUNNY   84  66  54 SW6       30.03F HX  86
$$

WIZ051-052-058>065-066-070>072-312100-
SOUTHEAST WISCONSIN

CITY           SKY/WX    TMP DP  RH WIND       PRES   REMARKS
MILWAUKEE      MOSUNNY   80  66  62 SW7       30.04F HX  82
WAUKESHA       NOT AVBL
MILWAUKEE/TIMM NOT AVBL
RACINE         SUNNY     76  65  68 SE9       30.06F
BURLINGTON     MOSUNNY   81  67  62 CALM      30.04F HX  83
KENOSHA        SUNNY     79  69  71 E6        30.05F HX  81
FOND DU LAC    SUNNY     79  68  69 S8        30.02F HX  81
SHEBOYGAN      SUNNY     77  67  71 SW7       30.03F
WEST BEND      MOSUNNY   79  63  57 SW6       30.05S HX  80
JUNEAU         MOSUNNY   78  68  69 SW7       30.05F HX  81
$$

LSZ147-162-312100-
LAKE SUPERIOR

STATION/POSITION TIME  TEMP    WIND        PRES    WAVE
                       AIR SEA DIR/SP/G            HT/PER
                 (UTC) (F)     (DEG/KT/KT) (MB)    (FT/S)
W MID LAKE BUOY  1850   62 57  170/  6/  8 1011.4F   1
DEVILS ISLAND    1900   68      10/  2/  3 1011.2F
PORT WING        1900   81     190/ 13/ 16 1011.2S
SAXON HARBOR     1940   82     190/  9/ 17 1011.2F
$$

LMZ867-665-643>646-312100-
LAKE MICHIGAN

STATION/POSITION TIME  TEMP    WIND        PRES    WAVE
                       AIR SEA DIR/SP/G            HT/PER
                 (UTC) (F)     (DEG/KT/KT) (MB)    (FT/S)
CHAMBERS ISLAND  1900   70     170/  8/ 16 1015.6F
N MID LAKE BUOY  1850   63 65  200/ 16/ 17 1015.8F   2/ 4
NORTHPORT PIER   1900   66     140/ 11/ 13 1015.2F
KEWAUNEE LAKESHO 1900   56     170/ 12/ 13 1015.6F
SHEBOYGAN LAKESH 1900   67     170/ 20/ 21 1017.0F
PORT WASHINGTON  1940   65     180/  9/ 11 1017.9F
ATWATER BUOY     1900   58 51  180/  8/  8 1018.9F
MILWAUKEE LAKESH 1910   62     120/  4/  6   N/A
S MID LAKE BUOY  1850   70 72  160/  4/  4 1017.8F   0
KENOSHA   LAKESH 1900   67     170/  9/ 11 1017.6S
$$

TC  - TEMPERATURE IN CELSIUS
VSB - VISIBILITY IN STATUTE MILES
WCI - WIND CHILL INDEX
HX  - HEAT INDEX



USA.gov is the U.S. government's official web portal to all federal, state and local government web resources and services.